Find Fastrac-OSCAR-70

NORAD ID: 37380 Int'l Des: 2010-062 Owner: AFSMC Country: US operational
LEOCIRCULAR

Current View

Loading 3D Globe...

About Fastrac-OSCAR-70

Description loading...

Upcoming Passes

Passes for default location (London). Set your location on the main map for personalized predictions.

Altitude History

Loading altitude history...

Two-Line Element Set

1 37380U 10062M 26150.11219653 .00000885 00000-0 11156-3 0 9990
2 37380 71.9704 185.8278 0014346 153.7075 206.4822 14.84610143363093
Epoch: May 30, 2026 • Age: 13 hours

Current Status

Altitude 643.1 km
Velocity 7.53 km/s
Sub-Earth Point -51.03°S, 42.15°E
Launch Date Nov 20, 2010
Age 15.5 years
Type other

Technical Details

Classification Payload
Mass 27.00 kg
Dry Mass 27.00 kg
Total Mass 27.00 kg
Length 0.20 m
Diameter 0.50 m
Span 0.50 m
Shape Hex Cyl
Manufacturer UT
Bus Type FASTRAC
Phase Status In Orbit
Owner/State AFSMC/US

Most Searched